Location: Newark
(7.0858°N, 171.3717°E)
Time: 06:18:09
(UTC+00:00)

Courier 1B Rocket - Pass Details

Date: 28 November 2020
Orbit: 920 x 1202 km, 28.2° (Epoch: 20 January)

Event Time Altitude Azimuth Distance (km) Brightness Sun altitude
Rises 19:05:30 0° 295° (WNW) 4,091 7.6 7.2°
Reaches altitude 10° 19:09:51 10° 316° (NW) 3,119 7.1 8.2°
Maximum altitude 19:14:09 16° 351° (N) 2,697 7.1 9.2°
Drops below altitude 10° 19:18:25 10° 25° (NNE) 3,061 7.7 10.2°
Sets 19:22:38 0° 47° (NE) 3,974 8.5 11.1°
